Location: Newark
(7.0858°N, 171.3717°E)
Time: 06:14:23
(UTC+00:00)

Courier 1B Rocket - Pass Details

Date: 29 November 2020
Orbit: 920 x 1202 km, 28.2° (Epoch: 20 January)

Event Time Altitude Azimuth Distance (km) Brightness Sun altitude
Rises 19:59:40 0° 308° (NW) 4,084 7.6 19.4°
Reaches altitude 10° 20:04:25 10° 333° (NNW) 3,095 7.2 20.4°
Maximum altitude 20:07:59 14° 1° (N) 2,796 7.2 21.2°
Drops below altitude 10° 20:11:30 10° 29° (NNE) 3,028 7.7 22.0°
Sets 20:16:03 0° 54° (NE) 3,928 8.5 23.0°
